#datetime,building,power
2023-02-08T00:00:00,cen,9.60
2023-02-08T00:02:00,cen,9.59
2023-02-08T00:03:00,cen,4.80
2023-02-08T00:05:00,cen,8.39
2023-02-08T00:07:00,cen,10.80
2023-02-08T00:09:00,cen,8.40
2023-02-08T00:11:00,cen,9.60
2023-02-08T00:12:00,cen,3.60
2023-02-08T00:14:00,cen,9.60
2023-02-08T00:15:00,cen,4.80
2023-02-08T00:17:00,cen,10.80
2023-02-08T00:19:00,cen,8.40
2023-02-08T00:21:00,cen,9.59
2023-02-08T00:22:00,cen,3.60
2023-02-08T00:23:00,cen,4.80
2023-02-08T00:25:00,cen,10.80
2023-02-08T00:26:00,cen,3.60
2023-02-08T00:28:00,cen,10.80
2023-02-08T00:29:00,cen,4.80
2023-02-08T00:31:00,cen,9.60
2023-02-08T00:33:00,cen,9.60
2023-02-08T00:35:00,cen,10.80
2023-02-08T00:37:00,cen,9.60
2023-02-08T00:39:00,cen,9.60
2023-02-08T00:41:00,cen,9.59
2023-02-08T00:43:00,cen,10.80
2023-02-08T00:44:00,cen,3.60
2023-02-08T00:46:00,cen,9.59
2023-02-08T00:48:00,cen,8.40
2023-02-08T00:49:00,cen,6.00
2023-02-08T00:51:00,cen,10.80
2023-02-08T00:52:00,cen,3.60
2023-02-08T00:54:00,cen,8.40
2023-02-08T00:56:00,cen,8.40
2023-02-08T00:57:00,cen,3.60
2023-02-08T00:58:00,cen,3.60
2023-02-08T01:00:00,cen,9.60
2023-02-08T01:02:00,cen,8.40
2023-02-08T01:04:00,cen,8.40
2023-02-08T01:06:00,cen,8.40
2023-02-08T01:07:00,cen,6.00
2023-02-08T01:09:00,cen,9.59
2023-02-08T01:11:00,cen,10.80
2023-02-08T01:13:00,cen,10.80
2023-02-08T01:14:00,cen,4.80
2023-02-08T01:16:00,cen,12.00
2023-02-08T01:17:00,cen,4.80
2023-02-08T01:18:00,cen,4.80
2023-02-08T01:19:00,cen,4.80
2023-02-08T01:21:00,cen,9.60
2023-02-08T01:22:00,cen,6.00
2023-02-08T01:24:00,cen,10.80
2023-02-08T01:25:00,cen,7.20
2023-02-08T01:27:00,cen,9.60
2023-02-08T01:29:00,cen,9.59
2023-02-08T01:30:00,cen,6.01
2023-02-08T01:31:00,cen,4.80
2023-02-08T01:33:00,cen,9.60
2023-02-08T01:34:00,cen,6.00
2023-02-08T01:36:00,cen,9.60
2023-02-08T01:37:00,cen,4.80
2023-02-08T01:38:00,cen,4.80
2023-02-08T01:40:00,cen,8.40
2023-02-08T01:42:00,cen,10.80
2023-02-08T01:43:00,cen,3.60
2023-02-08T01:45:00,cen,8.40
2023-02-08T01:47:00,cen,9.60
2023-02-08T01:49:00,cen,10.80
2023-02-08T01:51:00,cen,9.60
2023-02-08T01:53:00,cen,9.60
2023-02-08T01:54:00,cen,3.60
2023-02-08T01:56:00,cen,9.60
2023-02-08T01:58:00,cen,9.60
2023-02-08T02:00:00,cen,10.80
2023-02-08T02:02:00,cen,8.40
2023-02-08T02:04:00,cen,9.60
2023-02-08T02:06:00,cen,8.40
2023-02-08T02:08:00,cen,12.00
2023-02-08T02:10:00,cen,10.80
2023-02-08T02:12:00,cen,10.80
2023-02-08T02:13:00,cen,4.80
2023-02-08T02:15:00,cen,8.40
2023-02-08T02:16:00,cen,6.00
2023-02-08T02:17:00,cen,4.80
2023-02-08T02:19:00,cen,8.40
2023-02-08T02:21:00,cen,9.60
2023-02-08T02:22:00,cen,4.80
2023-02-08T02:24:00,cen,9.60
2023-02-08T02:26:00,cen,10.80
2023-02-08T02:27:00,cen,3.60
2023-02-08T02:29:00,cen,9.60
2023-02-08T02:31:00,cen,9.59
2023-02-08T02:33:00,cen,10.80
2023-02-08T02:34:00,cen,6.00
2023-02-08T02:36:00,cen,10.80
2023-02-08T02:37:00,cen,4.80
2023-02-08T02:39:00,cen,10.80
2023-02-08T02:41:00,cen,9.59
2023-02-08T02:42:00,cen,6.01
2023-02-08T02:44:00,cen,10.80
2023-02-08T02:45:00,cen,6.00
2023-02-08T02:46:00,cen,4.80
2023-02-08T02:48:00,cen,9.59
2023-02-08T02:50:00,cen,10.80
2023-02-08T02:52:00,cen,27.60
2023-02-08T02:54:00,cen,26.40
2023-02-08T02:56:00,cen,18.00
2023-02-08T02:58:00,cen,9.60
2023-02-08T03:00:00,cen,10.80
2023-02-08T03:01:00,cen,3.60
2023-02-08T03:03:00,cen,9.60
2023-02-08T03:05:00,cen,9.60
2023-02-08T03:07:00,cen,10.80
2023-02-08T03:09:00,cen,9.60
2023-02-08T03:11:00,cen,9.60
2023-02-08T03:12:00,cen,3.60
2023-02-08T03:13:00,cen,4.80
2023-02-08T03:15:00,cen,9.60
2023-02-08T03:17:00,cen,10.80
2023-02-08T03:18:00,cen,4.80
2023-02-08T03:20:00,cen,8.40
2023-02-08T03:22:00,cen,8.40
2023-02-08T03:24:00,cen,10.80
2023-02-08T03:26:00,cen,8.40
2023-02-08T03:27:00,cen,4.80
2023-02-08T03:29:00,cen,8.40
2023-02-08T03:31:00,cen,10.80
2023-02-08T03:32:00,cen,3.60
2023-02-08T03:34:00,cen,9.59
2023-02-08T03:36:00,cen,9.60
2023-02-08T03:37:00,cen,4.80
2023-02-08T03:38:00,cen,4.80
2023-02-08T03:40:00,cen,9.60
2023-02-08T03:41:00,cen,6.00
2023-02-08T03:42:00,cen,4.80
2023-02-08T03:44:00,cen,9.60
2023-02-08T03:46:00,cen,8.40
2023-02-08T03:48:00,cen,9.59
2023-02-08T03:50:00,cen,10.80
2023-02-08T03:52:00,cen,9.60
2023-02-08T03:53:00,cen,4.80
2023-02-08T03:55:00,cen,8.40
2023-02-08T03:57:00,cen,9.60
2023-02-08T03:59:00,cen,10.80
2023-02-08T04:01:00,cen,8.40
2023-02-08T04:03:00,cen,8.40
2023-02-08T04:05:00,cen,9.60
2023-02-08T04:07:00,cen,9.59
2023-02-08T04:08:00,cen,6.01
2023-02-08T04:10:00,cen,12.00
2023-02-08T04:12:00,cen,9.60
2023-02-08T04:14:00,cen,9.59
2023-02-08T04:16:00,cen,12.00
2023-02-08T04:18:00,cen,8.40
2023-02-08T04:20:00,cen,10.80
2023-02-08T04:21:00,cen,4.80
2023-02-08T04:23:00,cen,12.00
2023-02-08T04:25:00,cen,10.80
2023-02-08T04:27:00,cen,10.80
2023-02-08T04:28:00,cen,4.80
2023-02-08T04:30:00,cen,10.80
2023-02-08T04:31:00,cen,4.80
2023-02-08T04:33:00,cen,9.60
2023-02-08T04:35:00,cen,10.80
2023-02-08T04:37:00,cen,9.59
2023-02-08T04:39:00,cen,10.80
2023-02-08T04:41:00,cen,12.00
2023-02-08T04:43:00,cen,10.80
2023-02-08T04:45:00,cen,9.60
2023-02-08T04:47:00,cen,9.59
2023-02-08T04:48:00,cen,6.01
2023-02-08T04:50:00,cen,12.00
2023-02-08T04:52:00,cen,9.60
2023-02-08T04:54:00,cen,9.59
2023-02-08T04:55:00,cen,4.80
2023-02-08T04:57:00,cen,10.80
2023-02-08T04:59:00,cen,9.60
2023-02-08T05:01:00,cen,10.80
2023-02-08T05:03:00,cen,8.40
2023-02-08T05:05:00,cen,12.00
2023-02-08T05:07:00,cen,8.40
2023-02-08T05:09:00,cen,9.60
2023-02-08T05:11:00,cen,10.80
2023-02-08T05:13:00,cen,14.40
2023-02-08T05:14:00,cen,13.20
2023-02-08T05:16:00,cen,27.60
2023-02-08T05:18:00,cen,22.80
2023-02-08T05:19:00,cen,3.60
2023-02-08T05:21:00,cen,10.80
2023-02-08T05:23:00,cen,9.59
2023-02-08T05:25:00,cen,10.80
2023-02-08T05:26:00,cen,4.80
2023-02-08T05:28:00,cen,8.40
2023-02-08T05:30:00,cen,12.00
2023-02-08T05:31:00,cen,3.60
2023-02-08T05:32:00,cen,6.00
2023-02-08T05:34:00,cen,9.60
2023-02-08T05:35:00,cen,4.80
2023-02-08T05:37:00,cen,10.80
2023-02-08T05:39:00,cen,10.80
2023-02-08T05:41:00,cen,8.39
2023-02-08T05:42:00,cen,6.01
2023-02-08T05:44:00,cen,9.59
2023-02-08T05:46:00,cen,9.60
2023-02-08T05:47:00,cen,4.80
2023-02-08T05:48:00,cen,4.80
2023-02-08T05:50:00,cen,9.60
2023-02-08T05:51:00,cen,4.80
2023-02-08T05:53:00,cen,9.60
2023-02-08T05:55:00,cen,10.80
2023-02-08T05:57:00,cen,9.60
2023-02-08T05:59:00,cen,10.80
2023-02-08T06:00:00,cen,4.80
2023-02-08T06:02:00,cen,9.60
2023-02-08T06:04:00,cen,10.80
2023-02-08T06:05:00,cen,4.80
2023-02-08T06:07:00,cen,9.60
2023-02-08T06:09:00,cen,10.80
2023-02-08T06:11:00,cen,12.00
2023-02-08T06:13:00,cen,10.80
2023-02-08T06:14:00,cen,6.00
2023-02-08T06:16:00,cen,10.80
2023-02-08T06:17:00,cen,6.01
2023-02-08T06:19:00,cen,12.00
2023-02-08T06:20:00,cen,6.00
2023-02-08T06:22:00,cen,12.00
2023-02-08T06:25:00,cen,10.80
2023-02-08T06:26:00,cen,12.00
2023-02-08T06:28:00,cen,12.00
2023-02-08T06:29:00,cen,7.20
2023-02-08T06:31:00,cen,10.80
2023-02-08T06:32:00,cen,7.20
2023-02-08T06:34:00,cen,10.80
2023-02-08T06:36:00,cen,10.80
2023-02-08T06:38:00,cen,10.80
2023-02-08T06:39:00,cen,6.01
2023-02-08T06:41:00,cen,10.80
2023-02-08T06:42:00,cen,4.80
2023-02-08T06:44:00,cen,13.21
2023-02-08T06:45:00,cen,6.00
2023-02-08T06:47:00,cen,12.00
2023-02-08T06:48:00,cen,4.80
2023-02-08T06:49:00,cen,6.00
2023-02-08T06:51:00,cen,8.40
2023-02-08T06:53:00,cen,9.59
2023-02-08T06:54:00,cen,6.01
2023-02-08T06:56:00,cen,9.59
2023-02-08T06:57:00,cen,4.80
2023-02-08T06:58:00,cen,3.60
2023-02-08T06:59:00,cen,4.80
2023-02-08T07:01:00,cen,8.40
2023-02-08T07:02:00,cen,4.80
2023-02-08T07:04:00,cen,12.00
2023-02-08T07:05:00,cen,7.20
2023-02-08T07:07:00,cen,15.60
2023-02-08T07:09:00,cen,15.60
2023-02-08T07:10:00,cen,8.40
2023-02-08T07:12:00,cen,15.60
2023-02-08T07:14:00,cen,15.60
2023-02-08T07:16:00,cen,15.60
2023-02-08T07:17:00,cen,8.40
2023-02-08T07:18:00,cen,7.20
2023-02-08T07:20:00,cen,16.79
2023-02-08T07:21:00,cen,7.21
2023-02-08T07:23:00,cen,15.59
2023-02-08T07:25:00,cen,15.60
2023-02-08T07:27:00,cen,15.60
2023-02-08T07:28:00,cen,8.40
2023-02-08T07:30:00,cen,15.60
2023-02-08T07:32:00,cen,14.40
2023-02-08T07:33:00,cen,7.20
2023-02-08T07:35:00,cen,16.80
2023-02-08T07:36:00,cen,8.40
2023-02-08T07:37:00,cen,7.20
2023-02-08T07:39:00,cen,15.60
2023-02-08T07:40:00,cen,8.40
2023-02-08T07:42:00,cen,14.40
2023-02-08T07:43:00,cen,8.40
2023-02-08T07:45:00,cen,15.60
2023-02-08T07:47:00,cen,15.59
2023-02-08T07:48:00,cen,8.40
2023-02-08T07:49:00,cen,7.20
2023-02-08T07:51:00,cen,15.60
2023-02-08T07:53:00,cen,16.80
2023-02-08T07:54:00,cen,8.40
2023-02-08T07:56:00,cen,14.40
2023-02-08T07:57:00,cen,7.20
2023-02-08T07:59:00,cen,16.80
2023-02-08T08:01:00,cen,15.60
2023-02-08T08:03:00,cen,16.80
2023-02-08T08:05:00,cen,18.00
2023-02-08T08:07:00,cen,28.80
2023-02-08T08:08:00,cen,18.00
2023-02-08T08:10:00,cen,36.00
2023-02-08T08:12:00,cen,30.00
2023-02-08T08:14:00,cen,21.60
2023-02-08T08:16:00,cen,20.40
2023-02-08T08:17:00,cen,8.40
2023-02-08T08:19:00,cen,18.00
2023-02-08T08:21:00,cen,18.00
2023-02-08T08:23:00,cen,19.20
2023-02-08T08:24:00,cen,9.60
2023-02-08T08:26:00,cen,21.60
2023-02-08T08:28:00,cen,20.40
2023-02-08T08:29:00,cen,12.00
2023-02-08T08:31:00,cen,23.99
2023-02-08T08:33:00,cen,26.40
2023-02-08T08:35:00,cen,24.00
2023-02-08T08:37:00,cen,26.40
2023-02-08T08:39:00,cen,25.20
2023-02-08T08:40:00,cen,13.20
2023-02-08T08:41:00,cen,12.00
2023-02-08T08:43:00,cen,22.80
2023-02-08T08:44:00,cen,10.80
2023-02-08T08:46:00,cen,22.80
2023-02-08T08:48:00,cen,25.20
2023-02-08T08:50:00,cen,22.80
2023-02-08T08:52:00,cen,24.00
2023-02-08T08:53:00,cen,13.20
2023-02-08T08:55:00,cen,24.00
2023-02-08T08:56:00,cen,12.00
2023-02-08T08:58:00,cen,23.99
2023-02-08T08:59:00,cen,13.21
2023-02-08T09:01:00,cen,21.60
2023-02-08T09:02:00,cen,10.80
2023-02-08T09:04:00,cen,21.61
2023-02-08T09:06:00,cen,22.79
2023-02-08T09:07:00,cen,10.80
2023-02-08T09:09:00,cen,22.80
2023-02-08T09:10:00,cen,10.80
2023-02-08T09:12:00,cen,21.60
2023-02-08T09:14:00,cen,22.80
2023-02-08T09:16:00,cen,22.80
2023-02-08T09:17:00,cen,12.00
2023-02-08T09:18:00,cen,12.00
2023-02-08T09:20:00,cen,24.00
2023-02-08T09:22:00,cen,25.20
2023-02-08T09:23:00,cen,10.80
2023-02-08T09:25:00,cen,21.61
2023-02-08T09:27:00,cen,34.80
2023-02-08T09:29:00,cen,38.40
2023-02-08T09:31:00,cen,37.20
2023-02-08T09:33:00,cen,22.80
2023-02-08T09:34:00,cen,12.00
2023-02-08T09:35:00,cen,9.60
2023-02-08T09:37:00,cen,22.80
2023-02-08T09:38:00,cen,12.00
2023-02-08T09:40:00,cen,22.80
2023-02-08T09:42:00,cen,21.60
2023-02-08T09:44:00,cen,22.80
2023-02-08T09:46:00,cen,22.80
2023-02-08T09:48:00,cen,22.80
2023-02-08T09:49:00,cen,12.00
2023-02-08T09:51:00,cen,21.60
2023-02-08T09:53:00,cen,22.80
2023-02-08T09:55:00,cen,22.80
2023-02-08T09:57:00,cen,22.80
2023-02-08T09:59:00,cen,21.60
2023-02-08T10:01:00,cen,21.60
2023-02-08T10:03:00,cen,22.80
2023-02-08T10:05:00,cen,22.80
2023-02-08T10:07:00,cen,22.80
2023-02-08T10:09:00,cen,21.60
2023-02-08T10:11:00,cen,21.60
2023-02-08T10:12:00,cen,12.00
2023-02-08T10:14:00,cen,21.60
2023-02-08T10:15:00,cen,10.80
2023-02-08T10:17:00,cen,22.80
2023-02-08T10:19:00,cen,24.00
2023-02-08T10:21:00,cen,28.80
2023-02-08T10:22:00,cen,14.40
2023-02-08T10:24:00,cen,27.60
2023-02-08T10:26:00,cen,25.20
2023-02-08T10:28:00,cen,22.80
2023-02-08T10:29:00,cen,14.40
2023-02-08T10:31:00,cen,25.20
2023-02-08T10:33:00,cen,23.99
2023-02-08T10:35:00,cen,24.00
2023-02-08T10:36:00,cen,14.40
2023-02-08T10:38:00,cen,26.40
2023-02-08T10:40:00,cen,25.20
2023-02-08T10:41:00,cen,13.21
2023-02-08T10:43:00,cen,27.60
2023-02-08T10:44:00,cen,13.20
2023-02-08T10:46:00,cen,26.40
2023-02-08T10:48:00,cen,25.20
2023-02-08T10:50:00,cen,25.20
2023-02-08T10:52:00,cen,30.00
2023-02-08T10:54:00,cen,27.60
2023-02-08T10:56:00,cen,26.40
2023-02-08T10:57:00,cen,12.00
2023-02-08T10:59:00,cen,24.00
2023-02-08T11:01:00,cen,24.00
2023-02-08T11:03:00,cen,25.20
2023-02-08T11:04:00,cen,10.80
2023-02-08T11:06:00,cen,24.00
2023-02-08T11:08:00,cen,22.80
2023-02-08T11:09:00,cen,16.80
2023-02-08T11:11:00,cen,25.20
2023-02-08T11:13:00,cen,26.40
2023-02-08T11:14:00,cen,14.40
2023-02-08T11:16:00,cen,25.20
2023-02-08T11:18:00,cen,25.20
2023-02-08T11:20:00,cen,37.20
2023-02-08T11:21:00,cen,20.40
2023-02-08T11:23:00,cen,42.00
2023-02-08T11:25:00,cen,31.20
2023-02-08T11:27:00,cen,22.80
2023-02-08T11:29:00,cen,25.20
2023-02-08T11:31:00,cen,24.00
2023-02-08T11:33:00,cen,24.00
2023-02-08T11:35:00,cen,26.40
2023-02-08T11:37:00,cen,25.20
2023-02-08T11:38:00,cen,13.20
2023-02-08T11:40:00,cen,25.20
2023-02-08T11:42:00,cen,24.00
2023-02-08T11:44:00,cen,25.20
2023-02-08T11:45:00,cen,13.20
2023-02-08T11:47:00,cen,27.60
2023-02-08T11:49:00,cen,26.40
2023-02-08T11:51:00,cen,30.00
2023-02-08T11:53:00,cen,26.40
2023-02-08T11:54:00,cen,12.00
2023-02-08T11:56:00,cen,26.40
2023-02-08T11:58:00,cen,22.80
2023-02-08T11:59:00,cen,12.00
2023-02-08T12:01:00,cen,24.00
2023-02-08T12:03:00,cen,24.00
2023-02-08T12:04:00,cen,13.20
2023-02-08T12:06:00,cen,26.40
2023-02-08T12:08:00,cen,22.80
2023-02-08T12:10:00,cen,21.60
2023-02-08T12:12:00,cen,27.60
2023-02-08T12:13:00,cen,10.80
2023-02-08T12:15:00,cen,21.60
2023-02-08T12:17:00,cen,21.61
2023-02-08T12:18:00,cen,12.00
2023-02-08T12:20:00,cen,21.60
2023-02-08T12:21:00,cen,12.00
2023-02-08T12:23:00,cen,21.61
2023-02-08T12:24:00,cen,10.80
2023-02-08T12:26:00,cen,22.80
2023-02-08T12:27:00,cen,12.00
2023-02-08T12:29:00,cen,22.80
2023-02-08T12:31:00,cen,24.00
2023-02-08T12:32:00,cen,13.20
2023-02-08T12:34:00,cen,22.80
2023-02-08T12:36:00,cen,21.61
2023-02-08T12:38:00,cen,22.80
2023-02-08T12:40:00,cen,27.60
2023-02-08T12:42:00,cen,26.40
2023-02-08T12:44:00,cen,27.60
2023-02-08T12:46:00,cen,25.20
2023-02-08T12:47:00,cen,13.21
2023-02-08T12:49:00,cen,26.40
2023-02-08T12:51:00,cen,24.00
2023-02-08T12:52:00,cen,12.00
2023-02-08T12:54:00,cen,26.40
2023-02-08T12:56:00,cen,25.20
2023-02-08T12:58:00,cen,26.40
2023-02-08T13:00:00,cen,25.20
2023-02-08T13:01:00,cen,12.00
2023-02-08T13:03:00,cen,24.00
2023-02-08T13:05:00,cen,26.40
2023-02-08T13:07:00,cen,25.20
2023-02-08T13:09:00,cen,25.20
2023-02-08T13:11:00,cen,24.00
2023-02-08T13:13:00,cen,24.00
2023-02-08T13:15:00,cen,25.20
2023-02-08T13:16:00,cen,12.00
2023-02-08T13:18:00,cen,24.00
2023-02-08T13:19:00,cen,12.00
2023-02-08T13:20:00,cen,12.00
2023-02-08T13:22:00,cen,23.99
2023-02-08T13:24:00,cen,25.20
2023-02-08T13:25:00,cen,12.00
2023-02-08T13:27:00,cen,26.40
2023-02-08T13:29:00,cen,26.40
2023-02-08T13:31:00,cen,26.40
2023-02-08T13:32:00,cen,14.40
2023-02-08T13:34:00,cen,26.40
2023-02-08T13:36:00,cen,26.40
2023-02-08T13:38:00,cen,26.40
2023-02-08T13:40:00,cen,26.40
2023-02-08T13:42:00,cen,27.60
2023-02-08T13:43:00,cen,13.20
2023-02-08T13:45:00,cen,25.20
2023-02-08T13:47:00,cen,26.40
2023-02-08T13:49:00,cen,25.20
2023-02-08T13:51:00,cen,26.40
2023-02-08T13:52:00,cen,12.00
2023-02-08T13:54:00,cen,24.00
2023-02-08T13:56:00,cen,33.60
2023-02-08T13:58:00,cen,42.00
2023-02-08T14:00:00,cen,38.40
2023-02-08T14:02:00,cen,26.40
2023-02-08T14:04:00,cen,25.20
2023-02-08T14:06:00,cen,24.00
2023-02-08T14:07:00,cen,13.20
2023-02-08T14:09:00,cen,25.20
2023-02-08T14:11:00,cen,23.99
2023-02-08T14:13:00,cen,25.20
2023-02-08T14:15:00,cen,24.00
2023-02-08T14:16:00,cen,13.20
2023-02-08T14:18:00,cen,24.00
2023-02-08T14:20:00,cen,24.00
2023-02-08T14:22:00,cen,23.99
2023-02-08T14:24:00,cen,25.20
2023-02-08T14:26:00,cen,26.40
2023-02-08T14:28:00,cen,22.79
2023-02-08T14:30:00,cen,21.61
2023-02-08T14:32:00,cen,20.40
2023-02-08T14:34:00,cen,26.40
2023-02-08T14:35:00,cen,10.80
2023-02-08T14:36:00,cen,10.80
2023-02-08T14:38:00,cen,22.80
2023-02-08T14:40:00,cen,20.41
2023-02-08T14:41:00,cen,10.80
2023-02-08T14:43:00,cen,21.60
2023-02-08T14:44:00,cen,10.80
2023-02-08T14:46:00,cen,22.80
2023-02-08T14:48:00,cen,25.20
2023-02-08T14:50:00,cen,21.60
2023-02-08T14:52:00,cen,23.99
2023-02-08T14:54:00,cen,22.80
2023-02-08T14:55:00,cen,10.80
2023-02-08T14:57:00,cen,21.60
2023-02-08T14:58:00,cen,12.00
2023-02-08T15:00:00,cen,21.60
2023-02-08T15:02:00,cen,22.80
2023-02-08T15:03:00,cen,10.80
2023-02-08T15:05:00,cen,21.60
2023-02-08T15:06:00,cen,10.80
2023-02-08T15:08:00,cen,22.80
2023-02-08T15:10:00,cen,22.80
2023-02-08T15:11:00,cen,12.00
2023-02-08T15:13:00,cen,21.60
2023-02-08T15:15:00,cen,21.60
2023-02-08T15:17:00,cen,38.40
2023-02-08T15:19:00,cen,40.80
2023-02-08T15:21:00,cen,27.60
2023-02-08T15:23:00,cen,22.80
2023-02-08T15:24:00,cen,9.60
2023-02-08T15:26:00,cen,22.80
2023-02-08T15:28:00,cen,22.80
2023-02-08T15:30:00,cen,22.80
2023-02-08T15:32:00,cen,22.80
2023-02-08T15:34:00,cen,21.60
2023-02-08T15:36:00,cen,22.80
2023-02-08T15:37:00,cen,12.00
2023-02-08T15:39:00,cen,22.80
2023-02-08T15:40:00,cen,10.80
2023-02-08T15:42:00,cen,21.60
2023-02-08T15:44:00,cen,20.40
2023-02-08T15:46:00,cen,21.60
2023-02-08T15:48:00,cen,20.40
2023-02-08T15:50:00,cen,20.41
2023-02-08T15:52:00,cen,20.40
2023-02-08T15:54:00,cen,21.60
2023-02-08T15:55:00,cen,12.00
2023-02-08T15:56:00,cen,10.80
2023-02-08T15:58:00,cen,21.60
2023-02-08T16:00:00,cen,21.60
2023-02-08T16:02:00,cen,20.41
2023-02-08T16:04:00,cen,22.80
2023-02-08T16:06:00,cen,20.40
2023-02-08T16:07:00,cen,9.60
2023-02-08T16:09:00,cen,20.40
2023-02-08T16:11:00,cen,21.60
2023-02-08T16:13:00,cen,24.00
2023-02-08T16:15:00,cen,21.60
2023-02-08T16:17:00,cen,20.40
2023-02-08T16:19:00,cen,20.40
2023-02-08T16:20:00,cen,9.60
2023-02-08T16:22:00,cen,21.60
2023-02-08T16:23:00,cen,10.80
2023-02-08T16:25:00,cen,20.40
2023-02-08T16:26:00,cen,9.60
2023-02-08T16:28:00,cen,20.40
2023-02-08T16:30:00,cen,21.60
2023-02-08T16:31:00,cen,10.80
2023-02-08T16:33:00,cen,21.60
2023-02-08T16:35:00,cen,21.60
2023-02-08T16:36:00,cen,12.00
2023-02-08T16:38:00,cen,19.20
2023-02-08T16:40:00,cen,19.20
2023-02-08T16:41:00,cen,9.60
2023-02-08T16:43:00,cen,18.00
2023-02-08T16:45:00,cen,22.80
2023-02-08T16:47:00,cen,18.00
2023-02-08T16:48:00,cen,8.40
2023-02-08T16:49:00,cen,10.80
2023-02-08T16:51:00,cen,18.00
2023-02-08T16:52:00,cen,8.40
2023-02-08T16:54:00,cen,16.80
2023-02-08T16:56:00,cen,18.00
2023-02-08T16:57:00,cen,9.59
2023-02-08T16:59:00,cen,19.20
2023-02-08T17:00:00,cen,8.40
2023-02-08T17:02:00,cen,18.00
2023-02-08T17:03:00,cen,8.40
2023-02-08T17:05:00,cen,12.00
2023-02-08T17:06:00,cen,7.20
2023-02-08T17:08:00,cen,14.41
2023-02-08T17:10:00,cen,12.00
2023-02-08T17:12:00,cen,12.00
2023-02-08T17:14:00,cen,10.80
2023-02-08T17:16:00,cen,12.00
2023-02-08T17:17:00,cen,6.01
2023-02-08T17:18:00,cen,4.80
2023-02-08T17:20:00,cen,12.00
2023-02-08T17:22:00,cen,10.80
2023-02-08T17:24:00,cen,10.80
2023-02-08T17:26:00,cen,10.80
2023-02-08T17:28:00,cen,10.80
2023-02-08T17:29:00,cen,4.80
2023-02-08T17:31:00,cen,10.80
2023-02-08T17:33:00,cen,12.00
2023-02-08T17:34:00,cen,6.00
2023-02-08T17:36:00,cen,10.80
2023-02-08T17:37:00,cen,4.80
2023-02-08T17:39:00,cen,9.60
2023-02-08T17:41:00,cen,12.00
2023-02-08T17:43:00,cen,10.80
2023-02-08T17:45:00,cen,10.80
2023-02-08T17:46:00,cen,3.60
2023-02-08T17:48:00,cen,10.80
2023-02-08T17:50:00,cen,10.80
2023-02-08T17:51:00,cen,6.00
2023-02-08T17:53:00,cen,12.00
2023-02-08T17:55:00,cen,10.80
2023-02-08T17:56:00,cen,3.60
2023-02-08T17:58:00,cen,10.80
2023-02-08T17:59:00,cen,6.00
2023-02-08T18:01:00,cen,10.80
2023-02-08T18:03:00,cen,28.80
2023-02-08T18:04:00,cen,13.20
2023-02-08T18:06:00,cen,26.40
2023-02-08T18:08:00,cen,10.80
2023-02-08T18:09:00,cen,6.00
2023-02-08T18:11:00,cen,9.60
2023-02-08T18:12:00,cen,4.80
2023-02-08T18:14:00,cen,10.80
2023-02-08T18:15:00,cen,4.80
2023-02-08T18:17:00,cen,10.80
2023-02-08T18:18:00,cen,4.80
2023-02-08T18:20:00,cen,10.80
2023-02-08T18:21:00,cen,3.60
2023-02-08T18:23:00,cen,9.60
2023-02-08T18:25:00,cen,10.80
2023-02-08T18:27:00,cen,12.00
2023-02-08T18:29:00,cen,8.40
2023-02-08T18:31:00,cen,9.60
2023-02-08T18:32:00,cen,3.60
2023-02-08T18:34:00,cen,9.60
2023-02-08T18:35:00,cen,4.80
2023-02-08T18:36:00,cen,6.01
2023-02-08T18:38:00,cen,8.39
2023-02-08T18:40:00,cen,8.40
2023-02-08T18:42:00,cen,9.60
2023-02-08T18:44:00,cen,12.00
2023-02-08T18:46:00,cen,9.60
2023-02-08T18:47:00,cen,6.00
2023-02-08T18:49:00,cen,10.80
2023-02-08T18:50:00,cen,4.80
2023-02-08T18:51:00,cen,4.80
2023-02-08T18:53:00,cen,10.80
2023-02-08T18:55:00,cen,13.20
2023-02-08T18:57:00,cen,10.80
2023-02-08T18:59:00,cen,9.60
2023-02-08T19:00:00,cen,3.60
2023-02-08T19:02:00,cen,10.80
2023-02-08T19:03:00,cen,6.00
2023-02-08T19:05:00,cen,8.40
2023-02-08T19:07:00,cen,9.60
2023-02-08T19:09:00,cen,9.59
2023-02-08T19:10:00,cen,6.01
2023-02-08T19:12:00,cen,8.39
2023-02-08T19:13:00,cen,4.80
2023-02-08T19:15:00,cen,9.59
2023-02-08T19:17:00,cen,8.40
2023-02-08T19:18:00,cen,6.01
2023-02-08T19:20:00,cen,12.00
2023-02-08T19:22:00,cen,9.60
2023-02-08T19:24:00,cen,9.59
2023-02-08T19:26:00,cen,9.60
2023-02-08T19:28:00,cen,10.80
2023-02-08T19:29:00,cen,4.80
2023-02-08T19:31:00,cen,9.60
2023-02-08T19:33:00,cen,9.59
2023-02-08T19:35:00,cen,9.60
2023-02-08T19:37:00,cen,10.80
2023-02-08T19:39:00,cen,9.59
2023-02-08T19:41:00,cen,8.40
2023-02-08T19:42:00,cen,6.01
2023-02-08T19:44:00,cen,9.59
2023-02-08T19:46:00,cen,10.80
2023-02-08T19:47:00,cen,4.80
2023-02-08T19:49:00,cen,9.60
2023-02-08T19:51:00,cen,9.60
2023-02-08T19:53:00,cen,8.40
2023-02-08T19:54:00,cen,6.00
2023-02-08T19:55:00,cen,4.80
2023-02-08T19:57:00,cen,9.60
2023-02-08T19:58:00,cen,4.80
2023-02-08T19:59:00,cen,4.80
2023-02-08T20:01:00,cen,9.59
2023-02-08T20:03:00,cen,9.60
2023-02-08T20:05:00,cen,10.80
2023-02-08T20:06:00,cen,6.00
2023-02-08T20:08:00,cen,9.59
2023-02-08T20:10:00,cen,8.40
2023-02-08T20:12:00,cen,10.80
2023-02-08T20:14:00,cen,10.80
2023-02-08T20:15:00,cen,4.80
2023-02-08T20:17:00,cen,9.60
2023-02-08T20:19:00,cen,9.59
2023-02-08T20:21:00,cen,10.80
2023-02-08T20:22:00,cen,4.80
2023-02-08T20:24:00,cen,9.60
2023-02-08T20:25:00,cen,4.80
2023-02-08T20:27:00,cen,9.60
2023-02-08T20:29:00,cen,9.60
2023-02-08T20:30:00,cen,4.80
2023-02-08T20:32:00,cen,9.60
2023-02-08T20:34:00,cen,9.59
2023-02-08T20:36:00,cen,9.60
2023-02-08T20:37:00,cen,4.80
2023-02-08T20:39:00,cen,9.59
2023-02-08T20:41:00,cen,9.60
2023-02-08T20:43:00,cen,9.60
2023-02-08T20:44:00,cen,4.80
2023-02-08T20:46:00,cen,8.40
2023-02-08T20:47:00,cen,4.80
2023-02-08T20:49:00,cen,9.60
2023-02-08T20:50:00,cen,6.00
2023-02-08T20:52:00,cen,9.60
2023-02-08T20:53:00,cen,4.80
2023-02-08T20:55:00,cen,9.60
2023-02-08T20:57:00,cen,26.40
2023-02-08T20:58:00,cen,14.40
2023-02-08T21:00:00,cen,27.60
2023-02-08T21:02:00,cen,10.80
2023-02-08T21:04:00,cen,9.60
2023-02-08T21:06:00,cen,10.80
2023-02-08T21:07:00,cen,4.80
2023-02-08T21:09:00,cen,8.40
2023-02-08T21:11:00,cen,9.60
2023-02-08T21:13:00,cen,9.59
2023-02-08T21:15:00,cen,9.60
2023-02-08T21:16:00,cen,4.80
2023-02-08T21:18:00,cen,9.59
2023-02-08T21:20:00,cen,9.60
2023-02-08T21:21:00,cen,3.60
2023-02-08T21:23:00,cen,10.80
2023-02-08T21:25:00,cen,9.60
2023-02-08T21:26:00,cen,4.80
2023-02-08T21:28:00,cen,9.60
2023-02-08T21:29:00,cen,3.60
2023-02-08T21:31:00,cen,9.60
2023-02-08T21:33:00,cen,10.80
2023-02-08T21:34:00,cen,4.80
2023-02-08T21:35:00,cen,4.80
2023-02-08T21:37:00,cen,8.40
2023-02-08T21:38:00,cen,3.60
2023-02-08T21:40:00,cen,7.20
2023-02-08T21:41:00,cen,4.80
2023-02-08T21:42:00,cen,4.80
2023-02-08T21:44:00,cen,8.39
2023-02-08T21:46:00,cen,8.40
2023-02-08T21:48:00,cen,8.40
2023-02-08T21:50:00,cen,8.40
2023-02-08T21:51:00,cen,6.00
2023-02-08T21:53:00,cen,9.60
2023-02-08T21:54:00,cen,4.80
2023-02-08T21:56:00,cen,9.60
2023-02-08T21:58:00,cen,10.80
2023-02-08T22:00:00,cen,9.59
2023-02-08T22:01:00,cen,4.80
2023-02-08T22:03:00,cen,9.59
2023-02-08T22:04:00,cen,4.80
2023-02-08T22:06:00,cen,8.40
2023-02-08T22:08:00,cen,9.59
2023-02-08T22:10:00,cen,10.80
2023-02-08T22:12:00,cen,8.40
2023-02-08T22:14:00,cen,8.40
2023-02-08T22:16:00,cen,9.59
2023-02-08T22:17:00,cen,3.60
2023-02-08T22:19:00,cen,10.80
2023-02-08T22:21:00,cen,9.60
2023-02-08T22:23:00,cen,8.40
2023-02-08T22:25:00,cen,8.40
2023-02-08T22:27:00,cen,10.80
2023-02-08T22:28:00,cen,4.80
2023-02-08T22:30:00,cen,9.60
2023-02-08T22:32:00,cen,9.59
2023-02-08T22:34:00,cen,8.40
2023-02-08T22:36:00,cen,9.60
2023-02-08T22:38:00,cen,8.40
2023-02-08T22:39:00,cen,4.80
2023-02-08T22:41:00,cen,9.60
2023-02-08T22:42:00,cen,3.60
2023-02-08T22:44:00,cen,7.20
2023-02-08T22:46:00,cen,10.80
2023-02-08T22:47:00,cen,4.80
2023-02-08T22:48:00,cen,3.60
2023-02-08T22:50:00,cen,8.40
2023-02-08T22:52:00,cen,8.40
2023-02-08T22:54:00,cen,8.40
2023-02-08T22:56:00,cen,9.59
2023-02-08T22:58:00,cen,8.40